RADIX (43550 NORAD) Tracking and Keplerian Element Data

This shows tracking and keplerian element data for the satellite.

Feedback or suggestion? Click here.




ElementValue
Catalog43550
NameRADIX
Epoch Orbit4921
Epoch Day144.4868519
Epoch Year2019
RAAN105.6918
Inclination51.6352
Eccentricity0.0005854
Argument of Perigee60.3324
Mean Anonmoly299.8253
Mean Motion15.65032403
Decay Rate0.00017623
L11 43550U 98067NY 19144.48685190 .00017623 00000-0 18070-3 0 9995
L22 43550 51.6352 105.6918 0005854 60.3324 299.8253 15.65032403 49214

Live tracking and technical data element details for RADIX (NORAD 43550). RADIX can be tracked NOW for your location showing map with azimuth and elevation plus other details from your city location.

Track the satellite on the map from your city or location and see movement details for azimuth, elevation, latitude, longitude, range, height, and movement on the map or in text.







IsCatalogInMostPopularTable: catalog: 43550, numindb: 167
Update: records affected: 1



GetName: 43550 RADIX

Hit Count: updated at: Fri, 24 May 2019 21:03:53 GMT